Weather in Marv Dasht

Iran     29°51′57″N   52°47′49″E
temp.,
°C
wind,
m/s
gust,
m/s
humid.,
%
clouds,
%
prec.,
mm/h
press.,
hPa
HPBL,
m
1 december, wed
wed100:30+10nw11323 0.0 101910
03:30+8nnw11353 0.0 101910
06:30+7nw11373 0.0 102010
09:30+13s11245 0.0 1021309
12:30+16wsw121912 0.0 10171137
15:30+18s1217100 0.0 1015965
18:30+14wnw2224100 0.0 101613
21:30+11wsw113157 0.0 101810
2 december, thu
thu200:30+10wsw1134100 0.0 101710
03:30+8sw113987 0.0 101710
06:30+7ssw1143100 0.0 101910
09:30+12ssw1131100 0.0 1019347
12:30+15sw3524100 0.0 10161296
15:30+16sw7722100 0.0 10141427
18:30+11sw333892 0.0 101744
21:30+9sw11493 0.0 101710
3 december, fri
fri300:30+7sw11620 0.0 101710
03:30+6w22701 0.0 101710
06:30+5wnw22820 0.0 101910
09:30+10sw12620 0.0 1020503
12:30+14sw35383 0.0 10161627
15:30+15wsw66210 0.0 10151841
18:30+10w33410 0.0 101839
21:30+8w22560 0.0 101913
4 december, sat
sat400:30+7wnw22640 0.0 101912
03:30+5nw22740 0.0 102012
06:30+3nw11830 0.0 102110
09:30+8n11550 0.0 1022369
12:30+12se11300 0.0 1019901
15:30+14s01225 0.0 10171051
18:30+10ese113059 0.0 101910
21:30+9se113398 0.0 101910
5 december, sun
sun500:30+7wnw003611 0.0 101910
03:30+7wnw1136100 0.0 101910
06:30+5w0038100 0.0 101910
09:30+11ssw112431 0.0 1020297
12:30+15ssw121214 0.0 1016827
15:30+17s23677 0.0 1014847
18:30+11sw11948 0.0 101610
21:30+9wsw221171 0.0 101710